TimeEDT,TemperatureF,Dew PointF,Humidity,Sea Level PressureIn,VisibilityMPH,Wind Direction,Wind SpeedMPH,Gust SpeedMPH,PrecipitationIn,Events,Conditions,WindDirDegrees,DateUTC
12:53 AM,77.0,73.9,90,30.10,10.0,Calm,Calm,-,N/A,,Mostly Cloudy,0,2013-08-19 04:53:00
1:53 AM,75.9,73.9,94,30.09,10.0,East,3.5,-,N/A,,Partly Cloudy,100,2013-08-19 05:53:00
2:53 AM,77.0,75.0,94,30.06,10.0,ESE,3.5,-,N/A,,Clear,110,2013-08-19 06:53:00
3:53 AM,78.1,75.9,93,30.04,10.0,East,4.6,-,N/A,,Partly Cloudy,100,2013-08-19 07:53:00
4:53 AM,78.1,77.0,96,30.03,10.0,East,4.6,-,N/A,,Clear,80,2013-08-19 08:53:00
5:53 AM,78.1,77.0,96,30.04,10.0,Calm,Calm,-,N/A,,Clear,0,2013-08-19 09:53:00
6:53 AM,77.0,75.9,96,30.04,8.0,East,3.5,-,N/A,Fog,Patches of Fog,90,2013-08-19 10:53:00
7:53 AM,80.1,78.1,94,30.05,10.0,Calm,Calm,-,N/A,,Partly Cloudy,0,2013-08-19 11:53:00
8:39 AM,80.6,78.8,94,30.06,10.0,East,3.5,-,N/A,,Scattered Clouds,100,2013-08-19 12:39:00
8:53 AM,82.0,79.0,90,30.06,10.0,East,5.8,-,N/A,,Scattered Clouds,100,2013-08-19 12:53:00
9:53 AM,84.0,75.9,76,30.07,10.0,SE,10.4,-,N/A,,Scattered Clouds,130,2013-08-19 13:53:00
10:53 AM,87.1,75.9,69,30.08,10.0,South,8.1,-,N/A,,Scattered Clouds,170,2013-08-19 14:53:00
11:53 AM,88.0,73.9,63,30.07,10.0,SE,8.1,-,N/A,,Scattered Clouds,130,2013-08-19 15:53:00
12:53 PM,89.1,75.0,63,30.06,10.0,East,9.2,-,N/A,,Mostly Cloudy,90,2013-08-19 16:53:00
1:53 PM,87.1,73.9,65,30.05,10.0,SW,6.9,-,N/A,,Mostly Cloudy,230,2013-08-19 17:53:00
2:51 PM,89.6,71.6,55,30.03,10.0,SE,6.9,-,N/A,Thunderstorm,Thunderstorm,130,2013-08-19 18:51:00
2:53 PM,89.1,72.0,57,30.03,10.0,SE,4.6,-,N/A,Thunderstorm,Thunderstorm,130,2013-08-19 18:53:00
3:19 PM,75.2,73.4,94,30.07,2.0,ESE,9.2,38.0,0.03,Rain-Thunderstorm,Heavy Thunderstorms and Rain,120,2013-08-19 19:19:00
3:26 PM,75.2,71.6,89,30.05,4.0,SSE,17.3,23.0,0.47,Rain-Thunderstorm,Heavy Thunderstorms and Rain,150,2013-08-19 19:26:00
3:53 PM,75.9,72.0,87,30.03,10.0,Calm,Calm,-,0.61,Rain-Thunderstorm,Light Thunderstorms and Rain,0,2013-08-19 19:53:00
4:12 PM,80.6,75.2,84,30.02,10.0,Calm,Calm,-,0.00,,Mostly Cloudy,0,2013-08-19 20:12:00
4:53 PM,88.0,73.9,63,30.00,10.0,ENE,5.8,-,0.00,,Mostly Cloudy,70,2013-08-19 20:53:00
5:53 PM,86.0,73.9,67,30.00,10.0,NNE,9.2,-,N/A,,Mostly Cloudy,20,2013-08-19 21:53:00
6:34 PM,87.8,73.4,62,30.00,10.0,ENE,6.9,-,N/A,Thunderstorm,Thunderstorm,70,2013-08-19 22:34:00
6:53 PM,87.1,73.9,65,30.00,10.0,East,8.1,-,N/A,Thunderstorm,Thunderstorm,80,2013-08-19 22:53:00
7:19 PM,84.2,73.4,70,30.00,10.0,SSE,4.6,-,N/A,,Mostly Cloudy,150,2013-08-19 23:19:00
7:53 PM,80.1,78.1,94,30.02,10.0,South,5.8,-,N/A,,Mostly Cloudy,170,2013-08-19 23:53:00
8:53 PM,80.1,75.0,85,30.03,10.0,Calm,Calm,-,N/A,,Partly Cloudy,0,2013-08-20 00:53:00
9:53 PM,80.1,75.0,85,30.05,10.0,East,5.8,-,N/A,,Scattered Clouds,100,2013-08-20 01:53:00
10:53 PM,80.1,75.0,85,30.06,10.0,ESE,4.6,-,N/A,,Scattered Clouds,120,2013-08-20 02:53:00
11:53 PM,77.0,75.0,94,30.06,10.0,SSE,3.5,-,N/A,,Partly Cloudy,160,2013-08-20 03:53:00